Location: Cadeilhan
(42.8161°N, 0.3161°E)
Time: 08:00:10
(UTC+00:00)

STARLINK-1087 - Pass Details

Date: 18 February 2020
Orbit: 379 x 380 km, 53.0° (Epoch: 31 March)

Event Time Altitude Azimuth Distance (km) Brightness Sun altitude
Exits shadow 04:19:15 14° 97° (E) 1,199 6.1 -28.7°
Drops below altitude 10° 04:20:02 10° 85° (E) 1,410 6.7 -28.6°
Enters shadow 05:17:28 -67° 235° (SW) 12,126 10.4 -18.1°
Maximum altitude 05:53:24 48° 328° (NNW) 512 3.2 -11.5°
